[[{"header":{"parameterUnit":"m.s-1","parameterCategory":1,"la1":30.2991,"la2":30.254,"lo1":-89.0895,"lo2":-89.0444,"dy":0.0017,"dx":0.0017,"nx":28,"ny":28,"refTime":"2023-08-11T21:00:00:Z","depth":0,"parameterNumber":2,"parameterNumberName":"U-component_of_WINDS"},"data":[0,0,0,0,0,0,0,0,0,0,0,0,0,0,0,0,0,0,0,0,0,0,0,0,0,0,0,0,0,0,0,0,0,0,0,0,0,0,0,0,0,0,0,0,0,0,0,0,0,0,0,0,0,0,0,0,0,0,4.347,4.3472,0,4.3625,4.3627,4.3629,4.3589,4.3586,4.3583,4.358,4.3741,4.3748,4.3755,0,0,0,0,0,0,0,0,0,0,0,0,0,4.3141,4.3147,4.347,4.3472,4.3474,4.3625,4.3627,4.3629,4.359,4.3586,4.3582,4.3579,4.3739,4.3747,4.3756,0,0,0,0,0,0,0,0,0,0,0,0,0,4.3289,4.3149,4.347,4.3472,4.3474,4.3624,4.3627,4.363,4.3591,4.3586,4.3581,4.3577,4.3736,4.3746,4.3757,4.3915,0,0,4.379,4.3794,0,0,0,0,0,0,0,0,4.3281,4.3301,4.347,4.3472,4.3475,4.3583,4.357,4.3725,4.3592,4.3547,4.358,4.3575,4.3692,4.3706,4.3746,4.3922,4.3929,4.3791,4.3797,4.3802,4.3805,0,0,0,0,0,0,0,4.327,4.3294,4.3531,4.3473,4.3475,4.3466,4.3482,4.3599,4.3643,4.355,4.3548,4.3566,4.3693,4.3735,4.3749,4.3931,4.379,4.38,4.3806,4.3811,4.4244,4.4249,0,0,0,0,0,0,4.3258,4.3286,4.3526,4.3536,4.3364,4.3476,4.3494,4.3553,4.3642,4.3651,4.357,4.3564,4.3719,4.3737,4.3755,4.3944,4.3802,4.3812,4.3818,4.4239,4.4245,4.4251,0,0,0,0,0,0,4.3251,4.328,4.352,4.341,4.344,4.3486,4.3553,4.3558,4.3601,4.3657,4.3665,4.3605,4.3716,4.374,4.3875,4.3949,4.3816,4.3826,4.4233,4.4241,4.4248,4.4324,0,0,0,0,0,0,4.3242,4.3278,4.3338,4.3412,4.3446,4.3638,4.3558,4.3565,4.3619,4.3613,4.3692,4.3701,4.3715,4.3859,4.3885,4.3961,4.3835,4.4226,4.4236,4.4245,4.4315,4.4334,4.4349,0,0,0,0,0,4.323,4.3354,4.3341,4.337,4.3522,4.3642,4.3661,4.3674,4.3625,4.3686,4.3722,4.3698,4.3937,4.3873,4.3903,4.3983,4.4222,4.4234,4.4245,4.4308,4.433,4.4349,0,0,0,0,0,0,4.3288,4.3364,4.335,4.3501,4.3565,4.3635,4.3712,4.3697,4.3777,4.3768,4.3781,4.3799,4.3937,4.3974,4.3901,4.4139,4.4072,4.409,4.411,4.4132,4.4148,4.4136,4.3843,0,0,0,0,0,4.3318,4.3408,4.347,4.3597,4.363,4.3666,4.3718,4.3722,4.3789,4.3817,4.3862,4.3929,4.4018,4.4077,4.4163,4.4321,4.4337,4.4391,4.4407,4.4421,4.4436,4.4521,4.4545,4.4288,4.4288,4.4288,0,0,4.3382,4.3434,4.3491,4.361,4.366,4.3754,4.3689,4.3791,4.386,4.3832,4.3962,4.3998,4.4073,4.422,4.4287,4.4255,4.4511,4.4436,4.4446,4.4454,4.4535,4.456,4.4581,4.4296,4.4295,4.4293,0,0,4.3545,4.3594,4.3705,4.3756,4.3832,4.3855,4.3882,4.3954,4.3976,4.4107,4.4087,4.4171,4.4325,4.4379,4.4427,4.461,4.459,4.4638,4.4726,4.4808,4.4829,4.4846,4.491,4.4933,4.4652,4.4653,4.4653,0,4.3614,4.3753,4.3764,4.3867,4.392,4.3899,4.4011,4.406,4.4161,4.4198,4.4161,4.4354,4.4403,4.4561,4.4606,4.4646,4.4676,4.4628,4.4825,4.4843,4.486,4.4921,4.4945,4.4658,4.4657,4.4657,4.4656,0,4.3834,4.3931,4.4012,4.4108,4.4171,4.4278,4.4305,4.4367,4.4366,4.4392,4.4525,4.4583,4.468,4.4718,4.4719,4.4877,4.4854,4.4821,4.4753,4.4889,4.4947,4.497,4.4665,4.4663,4.4662,4.466,0,0,4.4038,4.4138,4.4167,4.421,4.4293,4.4368,4.4475,4.4568,4.462,4.4691,4.478,4.4911,4.488,4.4934,4.4941,4.5014,4.5153,4.4971,4.4973,4.5002,4.533,4.5353,4.538,4.5141,4.5146,4.515,4.5323,0,4.4207,4.4393,4.4405,4.4574,4.4663,4.4644,4.4737,4.4797,4.4825,4.4905,4.4936,4.5028,4.4982,4.5014,4.5085,4.5121,4.5219,4.5109,4.5224,4.5228,4.5204,4.541,4.5436,4.5596,4.5346,4.5349,4.5352,0,4.4429,4.4505,4.4682,4.475,4.4788,4.4871,4.4957,4.5034,4.5103,4.5118,4.5178,4.5174,4.5283,4.5213,4.5363,4.5288,4.5336,4.5361,4.5367,4.5377,4.5297,4.5425,4.5648,4.5671,4.5388,4.5385,4.5383,0,4.4558,4.4705,4.4829,4.4867,4.495,4.5009,4.5046,4.511,4.5165,4.5241,4.5277,4.5365,4.5413,4.5481,4.5501,4.5448,4.5651,4.5582,4.5666,4.5665,4.5708,4.5705,4.5941,4.5742,4.5742,4.5741,4.5741,0,4.4745,4.4854,4.4888,4.4964,4.5085,4.5099,4.5218,4.5253,4.531,4.5392,4.5382,4.546,4.5482,4.5564,4.5581,4.5702,4.5724,4.5739,4.5742,4.574,4.5737,4.577,4.5759,4.5747,4.5746,4.5745,4.5744,0,4.4909,4.4936,4.507,4.5138,4.5158,4.5244,4.5302,4.5375,4.5402,4.5507,4.5532,4.5574,4.567,4.5696,4.5812,4.5823,4.5965,4.5959,4.5942,4.5941,4.6023,4.6014,4.6287,4.6323,4.6102,4.6104,4.6105,0,4.5026,4.5108,4.5185,4.5239,4.5279,4.5367,4.5422,4.5439,4.5498,4.5581,4.5645,4.5739,4.5815,4.597,4.6011,4.6099,4.6093,4.6183,4.6107,4.6101,4.6093,4.6087,4.6095,4.6197,4.6199,4.6201,4.6203,0,4.5229,4.5238,4.5319,4.5404,4.5471,4.5539,4.5604,4.5649,4.5675,4.5742,4.5839,4.5898,4.6016,4.6109,4.6199,4.6238,4.6225,4.6227,4.625,4.6248,4.6234,4.6241,4.5979,4.622,4.6218,4.6217,4.6216,4.6215,4.5372,4.5445,4.5509,4.5599,4.5649,4.5711,4.5782,4.5817,4.5899,4.5994,4.6,4.6105,4.6171,4.6289,4.6333,4.6416,4.639,4.6424,4.6433,4.6441,4.6447,4.6222,4.6433,4.6432,4.6432,4.6432,4.6431,0,4.5574,4.5615,4.5697,4.5788,4.5858,4.5839,4.5911,4.5971,4.6063,4.6126,4.6201,4.6312,4.6403,4.6451,4.6541,4.6598,4.6594,4.6621,4.6616,4.6625,4.6466,4.6436,4.6622,4.6622,4.6622,4.6622,4.6622,4.6622,4.5687,4.5808,4.5825,4.597,4.601,4.6112,4.6155,4.6211,4.626,4.6385,4.646,4.649,4.6546,4.664,4.6722,4.6734,4.6767,4.6797,4.6805,4.6656,4.6636,4.6618,4.6589,4.6805,4.6805,4.6957,4.6958,4.6959]},{"header":{"parameterUnit":"m.s-1","parameterCategory":1,"la1":30.2991,"la2":30.254,"lo1":-89.0895,"lo2":-89.0444,"dy":0.0017,"dx":0.0017,"nx":28,"ny":28,"refTime":"2023-08-11T21:00:00:Z","depth":0,"parameterNumber":3,"parameterNumberName":"V-component_of_WINDS"},"data":[0,0,0,0,0,0,0,0,0,0,0,0,0,0,0,0,0,0,0,0,0,0,0,0,0,0,0,0,0,0,0,0,0,0,0,0,0,0,0,0,0,0,0,0,0,0,0,0,0,0,0,0,0,0,0,0,0,0,-0.4444,-0.4444,0,-0.4431,-0.4431,-0.4431,-0.4449,-0.445,-0.4451,-0.4451,-0.4434,-0.4433,-0.4432,0,0,0,0,0,0,0,0,0,0,0,0,0,-0.4482,-0.4481,-0.4444,-0.4444,-0.4444,-0.4431,-0.4431,-0.4431,-0.4449,-0.445,-0.4451,-0.4452,-0.4435,-0.4433,-0.4432,0,0,0,0,0,0,0,0,0,0,0,0,0,-0.4467,-0.4481,-0.4444,-0.4452,-0.4452,-0.4431,-0.4431,-0.4431,-0.4449,-0.445,-0.4451,-0.4452,-0.4435,-0.4433,-0.4432,-0.4402,0,0,-0.4427,-0.4426,0,0,0,0,0,0,0,0,-0.4467,-0.4465,-0.4451,-0.4451,-0.4452,-0.4443,-0.4438,-0.4421,-0.4449,-0.445,-0.4451,-0.4453,-0.4436,-0.4434,-0.443,-0.4401,-0.44,-0.4427,-0.4426,-0.4425,-0.4425,0,0,0,0,0,0,0,-0.4468,-0.4466,-0.4439,-0.4451,-0.4451,-0.4455,-0.4454,-0.4435,-0.4438,-0.445,-0.4452,-0.445,-0.4436,-0.4431,-0.4429,-0.44,-0.4427,-0.4425,-0.4424,-0.4424,-0.4345,-0.4344,0,0,0,0,0,0,-0.4469,-0.4467,-0.4439,-0.4439,-0.4462,-0.4453,-0.4452,-0.4445,-0.4438,-0.4438,-0.4449,-0.4451,-0.4433,-0.4431,-0.4429,-0.4393,-0.4425,-0.4423,-0.4423,-0.4347,-0.4345,-0.4344,0,0,0,0,0,0,-0.447,-0.4466,-0.444,-0.4453,-0.445,-0.4451,-0.4443,-0.4444,-0.4439,-0.4437,-0.4437,-0.4443,-0.4434,-0.4431,-0.4409,-0.4392,-0.4423,-0.4421,-0.4348,-0.4346,-0.4345,-0.432,0,0,0,0,0,0,-0.4471,-0.4467,-0.4456,-0.4453,-0.4449,-0.4421,-0.4442,-0.4443,-0.4436,-0.4439,-0.4432,-0.4432,-0.4435,-0.4411,-0.4407,-0.4391,-0.442,-0.4349,-0.4347,-0.4345,-0.4323,-0.4318,-0.4314,0,0,0,0,0,-0.4472,-0.4449,-0.4455,-0.4452,-0.4436,-0.442,-0.4418,-0.4423,-0.4435,-0.4424,-0.4423,-0.4432,-0.4395,-0.4408,-0.4404,-0.4387,-0.435,-0.4348,-0.4345,-0.4324,-0.4319,-0.4314,0,0,0,0,0,0,-0.4449,-0.4449,-0.4456,-0.4431,-0.4426,-0.4423,-0.4409,-0.4417,-0.4407,-0.4409,-0.4415,-0.4413,-0.4389,-0.4386,-0.4401,-0.4358,-0.4375,-0.4371,-0.436,-0.4355,-0.4351,-0.4351,-0.4419,0,0,0,0,0,-0.4441,-0.4429,-0.4429,-0.4407,-0.4404,-0.4407,-0.44,-0.4405,-0.4399,-0.4396,-0.4394,-0.4386,-0.4373,-0.4364,-0.4352,-0.4323,-0.4321,-0.4309,-0.4305,-0.4301,-0.4298,-0.4281,-0.4276,-0.4336,-0.4336,-0.4336,0,0,-0.4424,-0.4423,-0.4415,-0.4403,-0.4399,-0.4385,-0.4405,-0.439,-0.4379,-0.4393,-0.4372,-0.437,-0.4362,-0.4336,-0.4324,-0.4333,-0.4281,-0.4298,-0.4296,-0.4294,-0.4278,-0.4273,-0.4268,-0.4334,-0.4334,-0.4335,0,0,-0.4387,-0.4385,-0.4367,-0.4363,-0.4357,-0.4359,-0.4355,-0.4352,-0.4351,-0.433,-0.434,-0.4328,-0.4305,-0.4299,-0.4293,-0.4254,-0.4261,-0.425,-0.4227,-0.4211,-0.4206,-0.4202,-0.4187,-0.4182,-0.4246,-0.4246,-0.4246,0,-0.4366,-0.4347,-0.4356,-0.434,-0.4334,-0.4348,-0.4328,-0.4324,-0.4314,-0.4309,-0.4319,-0.4291,-0.4287,-0.4259,-0.425,-0.4245,-0.4239,-0.425,-0.4207,-0.4202,-0.4199,-0.4184,-0.4179,-0.4245,-0.4245,-0.4245,-0.4245,0,-0.4322,-0.4308,-0.4294,-0.4286,-0.4278,-0.426,-0.4265,-0.4256,-0.4262,-0.4262,-0.424,-0.4236,-0.4223,-0.4217,-0.4222,-0.419,-0.4195,-0.4206,-0.4223,-0.4191,-0.4178,-0.4172,-0.4243,-0.4243,-0.4244,-0.4244,0,0,-0.4268,-0.4265,-0.426,-0.4256,-0.4251,-0.424,-0.4223,-0.4212,-0.4204,-0.4197,-0.4181,-0.4163,-0.4172,-0.4166,-0.417,-0.4156,-0.4124,-0.4168,-0.4168,-0.4159,-0.4087,-0.4078,-0.4072,-0.413,-0.4129,-0.4128,-0.4088,0,-0.423,-0.4201,-0.4208,-0.4179,-0.4166,-0.418,-0.4165,-0.416,-0.416,-0.4148,-0.4148,-0.4134,-0.4149,-0.4145,-0.4132,-0.4131,-0.4109,-0.4134,-0.4114,-0.4113,-0.4114,-0.4065,-0.4056,-0.4017,-0.4082,-0.4082,-0.4081,0,-0.4181,-0.4173,-0.4143,-0.4141,-0.4136,-0.4122,-0.4112,-0.4101,-0.4096,-0.4097,-0.409,-0.4097,-0.4078,-0.4097,-0.4071,-0.4087,-0.408,-0.4078,-0.4077,-0.4074,-0.4094,-0.4059,-0.4006,-0.3999,-0.4073,-0.4074,-0.4074,0,-0.4143,-0.4125,-0.4105,-0.4102,-0.4099,-0.4088,-0.4086,-0.4082,-0.4075,-0.4066,-0.4061,-0.405,-0.4043,-0.4033,-0.4037,-0.405,-0.401,-0.4029,-0.4009,-0.4009,-0.3998,-0.3999,-0.3941,-0.3996,-0.3996,-0.3996,-0.3996,0,-0.4098,-0.4079,-0.4088,-0.4075,-0.4054,-0.4062,-0.404,-0.404,-0.4036,-0.4022,-0.4034,-0.402,-0.4027,-0.4014,-0.4016,-0.3994,-0.3991,-0.399,-0.3991,-0.3988,-0.3988,-0.3982,-0.3984,-0.3995,-0.3995,-0.3995,-0.3996,0,-0.4052,-0.4057,-0.4036,-0.4035,-0.4035,-0.4019,-0.4018,-0.4005,-0.4007,-0.399,-0.3986,-0.3989,-0.3974,-0.3977,-0.3961,-0.3962,-0.3934,-0.3938,-0.3936,-0.3936,-0.3916,-0.3917,-0.3851,-0.3842,-0.3904,-0.3904,-0.3903,0,-0.4022,-0.4008,-0.4006,-0.3999,-0.3997,-0.3984,-0.3977,-0.3985,-0.3977,-0.397,-0.3958,-0.3944,-0.3934,-0.391,-0.3909,-0.3896,-0.39,-0.3878,-0.3898,-0.3896,-0.3898,-0.3898,-0.3896,-0.3873,-0.3872,-0.3872,-0.3871,0,-0.3969,-0.3973,-0.3963,-0.3954,-0.3946,-0.3939,-0.3932,-0.3925,-0.3932,-0.3923,-0.3909,-0.3901,-0.3885,-0.387,-0.3859,-0.3856,-0.3864,-0.3865,-0.386,-0.3856,-0.3855,-0.3854,-0.3923,-0.3866,-0.3867,-0.3867,-0.3867,-0.3868,-0.393,-0.3917,-0.3914,-0.3903,-0.3899,-0.3893,-0.3882,-0.3883,-0.3872,-0.386,-0.3865,-0.3848,-0.3843,-0.3828,-0.3824,-0.381,-0.3818,-0.381,-0.3808,-0.3806,-0.3803,-0.3859,-0.3808,-0.3808,-0.3808,-0.3808,-0.3808,0,-0.3876,-0.3875,-0.3865,-0.3856,-0.3847,-0.3858,-0.3851,-0.3842,-0.3828,-0.3823,-0.3813,-0.3796,-0.3783,-0.3782,-0.3769,-0.3758,-0.3762,-0.3754,-0.3754,-0.3753,-0.3797,-0.3802,-0.3752,-0.3752,-0.3752,-0.3752,-0.3752,-0.3752,-0.3847,-0.3827,-0.383,-0.3808,-0.3806,-0.3791,-0.3787,-0.3781,-0.3777,-0.3758,-0.3748,-0.3748,-0.3744,-0.3731,-0.3719,-0.3719,-0.3713,-0.3704,-0.3705,-0.3745,-0.375,-0.3756,-0.3761,-0.3703,-0.3703,-0.3662,-0.3662,-0.3662]}]]